User: anonymous   Login
Location: Unspecified
(0.0000°N, 0.0000°E)
Time: 08:33:29
(UTC+00:00)
Language:

ZACube-1 - Orbit

View from above orbital plane
View from above orbital plane
View from above satellite
View from above satellite

Ground track
Ground track

The orbit data is extracted from the following two-line orbital elements,

1 39417U 13066B   19345.75773479 +.00000166 +00000-0 +27160-4 0  9994
2 39417 097.5610 349.3544 0059037 175.2789 184.8994 14.81190432327108
Epoch (UTC): 11 December 2019 18:11:08
Eccentricity: 0.0059037
inclination: 97.5610°
perigee height: 584 km
apogee height: 667 km
right ascension of ascending node: 349.3544°
argument of perigee: 175.2789°
revolutions per day: 14.81190432
mean anomaly at epoch: 184.8994°
orbit number at epoch: 32710

The dashed part of the orbit path shows where the satellite is in the earth's shadow,  

DLR